Location: Lussas
(44.6119°N, 4.4726°E)
Time: 01:06:53
(UTC+00:00)

Lacrosse 4 Rocket - Pass Details

Date: 16 April 2021
Orbit: 538 x 619 km, 68.0° (Epoch: 05 May)

Event Time Altitude Azimuth Distance (km) Brightness Sun altitude
Rises 19:20:26 0° 307° (NW) 2,835 6.9 -9.5°
Reaches altitude 10° 19:25:10 10° 261° (W) 1,896 5.0 -10.3°
Maximum altitude 19:25:23 10° 258° (WSW) 1,892 4.9 -10.3°
Drops below altitude 10° 19:25:35 10° 255° (WSW) 1,892 4.8 -10.3°
Sets 19:30:14 0° 208° (SSW) 2,751 4.9 -11.1°
